sat.trackr.live / text

‹ back to catalog

STARLINK-36604

NORAD 68142 · 2026-049A

PAYLOAD ACTIVE UNKNOWN

§ Identity

Operator
Country
US
Launch date
2026-03-13
Launch site
AFWTR
Launch vehicle
Mass (kg)
RCS (m²)

Purposes: comms

External: N2YO · Heavens-Above · Gunter

§ Orbital elements

Epoch: 2026-05-25T00:46:44.391936Z

Period
93.91 min
Inclination
97.2858°
Eccentricity
0.0000870
Mean motion
15.33447834 rev/d
Perigee alt
464.9 km
Apogee alt
466.1 km
Semi-major
6,843.7 km
B*
3.3721e-4
RAAN
166.6411°
Arg perigee
119.9898°
Mean anomaly
240.1431°
Rev number
1,134

§ Raw data

STARLINK-366041 68142U 26049A   26145.03245824  .00010828  00000+0  33721-3 0  99952 68142  97.2858 166.6411 0000870 119.9898 240.1431 15.33447834 11343

JSON: /api/v1/satellites/68142 · /tle

For live sub-satellite position, see the globe view (requires WebGL).

§ Visibility from observer

Set your observer location to see the next 7 days of passes ≥ 10°. The values pass through the URL so the page stays shareable.

No JS? Fill the form by hand. The geolocation button needs JavaScript.